CFG030 EDDF-HEGN

Flight info

Callsign CFG030
Flight time 4h 12m
Altitude 33000
Route N0445F330 CINDY Z74 LAMPU DCT NOMBO Y161 MAH DCT VAVOR DCT RADIZ DCT ELTIB DCT INLOT N0449F350 DCT PINDO UL607 ATV DCT GENDO UL607 PAXIS Y707 OBRAN L321 REXUM M872 BOPOB
Aircraft A321/M-SDE2E3FGHIJ1RWXYZ/LB1

Departure

Time 2026-04-14 10:02
Airport Frankfurt Main Airport (EDDF)

Arrival

Time 2026-04-14 14:14
Airport Hurghada International Airport (HEGN)
Time Latitude Longitude Altitude Speed Heading
2026-04-14 09:27 50.04883 8.57441 356 ft 0 kts 217°
2026-04-14 09:35 50.04884 8.57441 356 ft 0 kts 217°
2026-04-14 09:42 50.04884 8.57442 356 ft 0 kts 217°
2026-04-14 09:43 50.04896 8.57456 365 ft 3 kts 218°
2026-04-14 09:44 50.04912 8.57475 361 ft 3 kts 213°
2026-04-14 09:44 50.04929 8.57490 362 ft 3 kts 193°
2026-04-14 09:44 50.04942 8.57493 362 ft 3 kts 139°
2026-04-14 09:44 50.04946 8.57489 361 ft 1 kts 115°
2026-04-14 09:45 50.04939 8.57513 360 ft 3 kts 115°
2026-04-14 09:45 50.04930 8.57542 363 ft 3 kts 114°
2026-04-14 09:45 50.04922 8.57570 362 ft 3 kts 114°
2026-04-14 09:45 50.04914 8.57599 358 ft 3 kts 114°
2026-04-14 09:46 50.04907 8.57623 360 ft 1 kts 114°
2026-04-14 09:46 50.04907 8.57624 359 ft 2 kts 114°
2026-04-14 09:49 50.04906 8.57625 359 ft 1 kts 114°
2026-04-14 09:49 50.04889 8.57687 359 ft 11 kts 114°
2026-04-14 09:50 50.04850 8.57827 360 ft 12 kts 113°
2026-04-14 09:50 50.04798 8.57911 360 ft 10 kts 154°
2026-04-14 09:50 50.04734 8.57912 361 ft 8 kts 202°
2026-04-14 09:50 50.04699 8.57855 357 ft 6 kts 242°
2026-04-14 09:51 50.04682 8.57792 363 ft 9 kts 248°
2026-04-14 09:51 50.04652 8.57668 363 ft 13 kts 249°
2026-04-14 09:51 50.04623 8.57545 360 ft 11 kts 250°
2026-04-14 09:51 50.04598 8.57436 363 ft 10 kts 250°
2026-04-14 09:52 50.04568 8.57310 360 ft 17 kts 249°
2026-04-14 09:52 50.04515 8.57099 358 ft 23 kts 250°
2026-04-14 09:52 50.04468 8.56896 363 ft 17 kts 250°
2026-04-14 09:52 50.04429 8.56726 361 ft 16 kts 250°
2026-04-14 09:53 50.04389 8.56564 359 ft 16 kts 249°
2026-04-14 09:53 50.04352 8.56412 362 ft 13 kts 249°
2026-04-14 09:53 50.04331 8.56324 357 ft 5 kts 250°
2026-04-14 09:53 50.04330 8.56320 356 ft 0 kts 250°
2026-04-14 09:54 50.04321 8.56280 359 ft 7 kts 250°
2026-04-14 09:54 50.04303 8.56203 358 ft 11 kts 250°
2026-04-14 09:54 50.04269 8.56056 360 ft 18 kts 249°
2026-04-14 09:54 50.04230 8.55895 355 ft 14 kts 250°
2026-04-14 09:55 50.04197 8.55758 358 ft 13 kts 249°
2026-04-14 09:55 50.04165 8.55632 357 ft 13 kts 249°
2026-04-14 09:55 50.04128 8.55477 352 ft 18 kts 250°
2026-04-14 09:55 50.04090 8.55310 357 ft 15 kts 250°
2026-04-14 09:56 50.04056 8.55168 355 ft 13 kts 250°
2026-04-14 09:56 50.04025 8.55041 356 ft 12 kts 249°
2026-04-14 09:56 50.03997 8.54926 359 ft 11 kts 249°
2026-04-14 09:56 50.03969 8.54810 356 ft 12 kts 249°
2026-04-14 09:57 50.03941 8.54695 354 ft 11 kts 250°
2026-04-14 09:57 50.03914 8.54580 353 ft 11 kts 249°
2026-04-14 09:57 50.03884 8.54455 351 ft 15 kts 249°
2026-04-14 09:57 50.03839 8.54321 352 ft 13 kts 236°
2026-04-14 09:58 50.03794 8.54199 350 ft 13 kts 248°
2026-04-14 09:58 50.03765 8.54075 353 ft 12 kts 250°
2026-04-14 09:58 50.03735 8.53949 351 ft 12 kts 250°
2026-04-14 09:58 50.03705 8.53824 347 ft 14 kts 249°
2026-04-14 09:59 50.03665 8.53663 345 ft 17 kts 249°
2026-04-14 09:59 50.03623 8.53493 341 ft 16 kts 250°
2026-04-14 09:59 50.03585 8.53334 335 ft 15 kts 249°
2026-04-14 09:59 50.03548 8.53182 335 ft 15 kts 249°
2026-04-14 10:00 50.03513 8.53037 335 ft 14 kts 250°
2026-04-14 10:00 50.03479 8.52901 336 ft 12 kts 247°
2026-04-14 10:00 50.03448 8.52785 333 ft 11 kts 247°
2026-04-14 10:00 50.03420 8.52675 335 ft 12 kts 249°
2026-04-14 10:01 50.03360 8.52601 335 ft 15 kts 189°
2026-04-14 10:01 50.03062 8.52596 335 ft 78 kts 179°
2026-04-14 10:01 50.02303 8.52603 333 ft 138 kts 180°
2026-04-14 10:01 50.01179 8.52614 337 ft 183 kts 179°
2026-04-14 10:02 49.99949 8.52622 1098 ft 170 kts 180°
2026-04-14 10:02 49.98769 8.52628 1714 ft 175 kts 180°
2026-04-14 10:02 49.97506 8.52922 1978 ft 195 kts 159°
2026-04-14 10:02 49.96299 8.54064 2181 ft 214 kts 134°
2026-04-14 10:03 49.95426 8.56027 2542 ft 228 kts 116°
2026-04-14 10:03 49.94662 8.58210 3321 ft 231 kts 115°
2026-04-14 10:03 49.94116 8.60552 4062 ft 234 kts 97°
2026-04-14 10:03 49.93957 8.63165 4397 ft 254 kts 90°
2026-04-14 10:04 49.93845 8.65968 5064 ft 264 kts 95°
2026-04-14 10:04 49.93335 8.68699 5752 ft 272 kts 115°
2026-04-14 10:04 49.92234 8.71117 6438 ft 279 kts 135°
2026-04-14 10:04 49.90691 8.72967 7113 ft 282 kts 145°
2026-04-14 10:05 49.89120 8.74807 7793 ft 285 kts 137°
2026-04-14 10:05 49.87835 8.77159 8478 ft 287 kts 122°
2026-04-14 10:05 49.86843 8.79858 9179 ft 289 kts 120°
2026-04-14 10:05 49.85861 8.82592 9879 ft 292 kts 120°
2026-04-14 10:06 49.84866 8.85354 10427 ft 299 kts 121°
2026-04-14 10:06 49.83813 8.88263 10553 ft 320 kts 121°
2026-04-14 10:06 49.82623 8.91243 10672 ft 338 kts 131°
2026-04-14 10:06 49.80975 8.93933 10918 ft 351 kts 136°
2026-04-14 10:07 49.79243 8.96633 11447 ft 355 kts 136°
2026-04-14 10:07 49.77488 8.99350 12033 ft 359 kts 136°
2026-04-14 10:07 49.75713 9.02094 12665 ft 362 kts 136°
2026-04-14 10:07 49.73921 9.04862 13311 ft 366 kts 136°
2026-04-14 10:08 49.72112 9.07653 13943 ft 369 kts 136°
2026-04-14 10:08 49.70288 9.10465 14468 ft 372 kts 137°
2026-04-14 10:08 49.68475 9.13261 14978 ft 375 kts 136°
2026-04-14 10:08 49.66603 9.16149 15495 ft 377 kts 136°
2026-04-14 10:09 49.64767 9.18981 16002 ft 379 kts 136°
2026-04-14 10:09 49.62892 9.21868 16495 ft 382 kts 136°
2026-04-14 10:09 49.61004 9.24770 17000 ft 384 kts 136°
2026-04-14 10:09 49.59106 9.27685 17494 ft 387 kts 136°
2026-04-14 10:10 49.57192 9.30621 17988 ft 389 kts 136°
2026-04-14 10:10 49.55267 9.33568 18447 ft 391 kts 136°
2026-04-14 10:10 49.53334 9.36525 18845 ft 393 kts 136°
2026-04-14 10:10 49.51388 9.39501 19232 ft 395 kts 136°
2026-04-14 10:11 49.49429 9.42490 19613 ft 397 kts 136°
2026-04-14 10:11 49.47464 9.45485 19992 ft 399 kts 136°
2026-04-14 10:11 49.45484 9.48498 20354 ft 401 kts 136°
2026-04-14 10:11 49.43522 9.51480 20725 ft 403 kts 136°
2026-04-14 10:12 49.41524 9.54514 21100 ft 405 kts 136°
2026-04-14 10:12 49.39508 9.57566 21473 ft 407 kts 136°
2026-04-14 10:12 49.37486 9.60626 21849 ft 410 kts 136°
2026-04-14 10:12 49.35452 9.63706 22227 ft 412 kts 136°
2026-04-14 10:13 49.33405 9.66799 22623 ft 414 kts 136°
2026-04-14 10:13 49.31346 9.69903 23045 ft 417 kts 136°
2026-04-14 10:13 49.29299 9.72985 23439 ft 419 kts 136°
2026-04-14 10:13 49.27215 9.76122 23825 ft 421 kts 136°
2026-04-14 10:14 49.25122 9.79272 24149 ft 424 kts 136°
2026-04-14 10:14 49.23014 9.82442 24449 ft 426 kts 136°
2026-04-14 10:14 49.20894 9.85625 24775 ft 428 kts 136°
2026-04-14 10:14 49.18763 9.88817 25083 ft 430 kts 136°
2026-04-14 10:15 49.16621 9.92023 25395 ft 432 kts 136°
2026-04-14 10:15 49.14473 9.95237 25699 ft 434 kts 137°
2026-04-14 10:15 49.12343 9.98420 26005 ft 435 kts 137°
2026-04-14 10:15 49.10170 10.01659 26312 ft 437 kts 137°
2026-04-14 10:16 49.07987 10.04905 26618 ft 439 kts 137°
2026-04-14 10:16 49.05797 10.08154 26926 ft 440 kts 137°
2026-04-14 10:16 49.03594 10.11415 27228 ft 442 kts 137°
2026-04-14 10:16 49.01384 10.14687 27532 ft 444 kts 137°
2026-04-14 10:17 48.99166 10.17967 27846 ft 445 kts 137°
2026-04-14 10:17 48.96941 10.21256 28149 ft 447 kts 137°
2026-04-14 10:17 48.94702 10.24559 28436 ft 448 kts 137°
2026-04-14 10:17 48.92492 10.27818 28700 ft 449 kts 137°
2026-04-14 10:18 48.87994 10.34445 29207 ft 452 kts 137°
2026-04-14 10:18 48.85731 10.37767 29474 ft 452 kts 137°
2026-04-14 10:18 48.83473 10.41088 29820 ft 451 kts 136°
2026-04-14 10:19 48.81406 10.44665 30148 ft 451 kts 131°
2026-04-14 10:19 48.79414 10.48334 30428 ft 450 kts 131°
2026-04-14 10:19 48.77448 10.51938 30670 ft 449 kts 131°
2026-04-14 10:19 48.75457 10.55582 30918 ft 449 kts 131°
2026-04-14 10:20 48.73466 10.59219 31178 ft 448 kts 131°
2026-04-14 10:20 48.71474 10.62843 31433 ft 447 kts 131°
2026-04-14 10:20 48.69484 10.66452 31686 ft 447 kts 131°
2026-04-14 10:20 48.67492 10.70058 31930 ft 446 kts 131°
2026-04-14 10:21 48.65498 10.73663 32184 ft 446 kts 131°
2026-04-14 10:21 48.63510 10.77261 32416 ft 445 kts 131°
2026-04-14 10:21 48.61527 10.80852 32661 ft 445 kts 131°
2026-04-14 10:21 48.59571 10.84390 32905 ft 445 kts 131°
2026-04-14 10:22 48.57588 10.87976 33099 ft 445 kts 131°
2026-04-14 10:22 48.55613 10.91542 33137 ft 441 kts 131°
2026-04-14 10:22 48.51688 10.98596 33140 ft 438 kts 131°
2026-04-14 10:23 48.47773 11.05597 33135 ft 436 kts 131°
2026-04-14 10:23 48.43890 11.12541 33140 ft 436 kts 131°
2026-04-14 10:24 48.39989 11.19512 33144 ft 435 kts 131°
2026-04-14 10:24 48.36084 11.26461 33142 ft 435 kts 132°
2026-04-14 10:25 48.32196 11.33351 33144 ft 434 kts 132°
2026-04-14 10:25 48.28315 11.40220 33147 ft 434 kts 132°
2026-04-14 10:26 48.24410 11.47113 33148 ft 433 kts 132°
2026-04-14 10:26 48.20509 11.53976 33146 ft 432 kts 132°
2026-04-14 10:27 48.16610 11.60823 33146 ft 432 kts 132°
2026-04-14 10:27 48.12742 11.67610 33146 ft 431 kts 133°
2026-04-14 10:28 48.08845 11.74420 33145 ft 430 kts 133°
2026-04-14 10:28 48.04948 11.81204 33144 ft 430 kts 133°
2026-04-14 10:29 48.01051 11.87970 33144 ft 429 kts 133°
2026-04-14 10:29 47.97188 11.94669 33139 ft 429 kts 133°
2026-04-14 10:30 47.93293 12.01411 33141 ft 428 kts 133°
2026-04-14 10:30 47.89404 12.08122 33140 ft 428 kts 133°
2026-04-14 10:31 47.85512 12.14815 33140 ft 427 kts 133°
2026-04-14 10:31 47.81622 12.21499 33141 ft 427 kts 133°
2026-04-14 10:32 47.77753 12.28117 33137 ft 426 kts 134°
2026-04-14 10:32 47.73866 12.34755 33131 ft 426 kts 134°
2026-04-14 10:33 47.69979 12.41384 33124 ft 425 kts 134°
2026-04-14 10:33 47.66110 12.47951 33119 ft 425 kts 134°
2026-04-14 10:34 47.60038 12.57483 33110 ft 423 kts 139°
2026-04-14 10:35 47.55748 12.63437 33097 ft 422 kts 139°
2026-04-14 10:35 47.51459 12.69386 33096 ft 423 kts 139°
2026-04-14 10:36 47.47205 12.75293 33092 ft 422 kts 139°
2026-04-14 10:36 47.42922 12.81227 33086 ft 422 kts 139°
2026-04-14 10:37 47.38634 12.87139 33083 ft 421 kts 139°
2026-04-14 10:37 47.34352 12.93036 33075 ft 421 kts 139°
2026-04-14 10:38 47.30105 12.98879 33064 ft 421 kts 139°
2026-04-14 10:38 47.25824 13.04739 33051 ft 420 kts 139°
2026-04-14 10:39 47.21537 13.10593 33050 ft 420 kts 140°
2026-04-14 10:39 47.17246 13.16441 33046 ft 420 kts 140°
2026-04-14 10:40 47.12991 13.22229 33042 ft 420 kts 140°
2026-04-14 10:40 47.08701 13.28051 33042 ft 420 kts 140°
2026-04-14 10:41 47.04407 13.33864 33038 ft 419 kts 140°
2026-04-14 10:41 47.00121 13.39653 33034 ft 419 kts 140°
2026-04-14 10:42 46.95857 13.45407 33035 ft 419 kts 140°
2026-04-14 10:42 46.91567 13.51181 33038 ft 419 kts 140°
2026-04-14 10:43 46.87266 13.56947 33044 ft 419 kts 140°
2026-04-14 10:43 46.82958 13.62697 33047 ft 420 kts 140°
2026-04-14 10:44 46.78653 13.68460 33046 ft 420 kts 140°
2026-04-14 10:44 46.74377 13.74174 33053 ft 420 kts 140°
2026-04-14 10:45 46.70059 13.79904 33055 ft 420 kts 140°
2026-04-14 10:45 46.65741 13.85627 33061 ft 420 kts 140°
2026-04-14 10:46 46.61423 13.91337 33064 ft 419 kts 140°
2026-04-14 10:46 46.57135 13.97002 33065 ft 419 kts 140°
2026-04-14 10:47 46.52954 14.02520 33065 ft 419 kts 141°
2026-04-14 10:47 46.48634 14.08205 33065 ft 419 kts 140°
2026-04-14 10:48 46.45773 14.11963 33066 ft 419 kts 140°
2026-04-14 10:48 46.43289 14.15282 33065 ft 419 kts 140°
2026-04-14 10:49 46.38959 14.20952 33051 ft 419 kts 141°
2026-04-14 10:49 46.34605 14.26574 33047 ft 419 kts 141°
2026-04-14 10:50 46.30266 14.32198 33045 ft 419 kts 141°
2026-04-14 10:50 46.25960 14.37806 33046 ft 419 kts 141°
2026-04-14 10:51 46.21615 14.43442 33043 ft 420 kts 141°
2026-04-14 10:51 46.17270 14.49066 33043 ft 420 kts 141°
2026-04-14 10:52 46.12922 14.54682 33047 ft 420 kts 141°
2026-04-14 10:52 46.08593 14.60255 33044 ft 420 kts 141°
2026-04-14 10:53 46.04236 14.65862 33047 ft 420 kts 141°
2026-04-14 10:53 45.99873 14.71455 33051 ft 420 kts 141°
2026-04-14 10:54 45.95507 14.77036 33059 ft 420 kts 141°
2026-04-14 10:54 45.91172 14.82573 33065 ft 420 kts 141°
2026-04-14 10:55 45.86811 14.88133 33071 ft 419 kts 141°
2026-04-14 10:55 45.82449 14.93682 33069 ft 419 kts 141°
2026-04-14 10:56 45.78089 14.99214 33064 ft 418 kts 142°
2026-04-14 10:56 45.73758 15.04692 33066 ft 418 kts 142°
2026-04-14 10:57 45.69396 15.10201 33062 ft 418 kts 142°
2026-04-14 10:57 45.65037 15.15696 33062 ft 418 kts 142°
2026-04-14 10:58 45.60681 15.21181 33059 ft 417 kts 142°
2026-04-14 10:58 45.56352 15.26620 33047 ft 417 kts 142°
2026-04-14 10:59 45.51986 15.32083 33052 ft 418 kts 142°
2026-04-14 10:59 45.47619 15.37536 33042 ft 417 kts 142°
2026-04-14 11:00 45.43254 15.42973 33043 ft 417 kts 142°
2026-04-14 11:00 45.38918 15.48356 33044 ft 417 kts 142°
2026-04-14 11:01 45.34552 15.53783 33046 ft 416 kts 142°
2026-04-14 11:01 45.30195 15.59190 33048 ft 416 kts 142°
2026-04-14 11:02 45.25828 15.64590 33051 ft 416 kts 142°
2026-04-14 11:02 45.21496 15.69930 33050 ft 415 kts 143°
2026-04-14 11:03 45.17130 15.75300 33048 ft 416 kts 143°
2026-04-14 11:03 45.12764 15.80671 33049 ft 416 kts 143°
2026-04-14 11:04 45.08390 15.86040 33050 ft 416 kts 143°
2026-04-14 11:04 45.04041 15.91359 33045 ft 416 kts 143°
2026-04-14 11:05 44.99661 15.96711 33039 ft 416 kts 143°
2026-04-14 11:05 44.95269 16.02054 33032 ft 417 kts 143°
2026-04-14 11:06 44.90879 16.07385 33025 ft 417 kts 143°
2026-04-14 11:06 44.86510 16.12686 33021 ft 417 kts 143°
2026-04-14 11:07 44.82104 16.18026 33011 ft 418 kts 143°
2026-04-14 11:07 44.77697 16.23367 33011 ft 418 kts 143°
2026-04-14 11:08 44.73276 16.28696 33003 ft 419 kts 143°
2026-04-14 11:08 44.68872 16.33977 33002 ft 419 kts 143°
2026-04-14 11:09 44.64428 16.39306 32995 ft 420 kts 143°
2026-04-14 11:09 44.59980 16.44637 32994 ft 421 kts 143°
2026-04-14 11:10 44.53322 16.52589 32984 ft 421 kts 143°
2026-04-14 11:10 44.48853 16.57907 32988 ft 422 kts 143°
2026-04-14 11:11 44.44381 16.63236 32989 ft 422 kts 143°
2026-04-14 11:11 44.39900 16.68559 32983 ft 423 kts 143°
2026-04-14 11:12 44.35409 16.73878 32988 ft 423 kts 143°
2026-04-14 11:12 44.30956 16.79157 32989 ft 423 kts 143°
2026-04-14 11:13 44.26463 16.84453 32988 ft 423 kts 143°
2026-04-14 11:13 44.21965 16.89733 32991 ft 423 kts 144°
2026-04-14 11:14 44.17465 16.95016 33004 ft 423 kts 143°
2026-04-14 11:14 44.13004 17.00254 32999 ft 422 kts 143°
2026-04-14 11:15 44.08510 17.05511 32995 ft 422 kts 144°
2026-04-14 11:15 44.04014 17.10765 32990 ft 422 kts 143°
2026-04-14 11:16 43.99543 17.15979 32989 ft 423 kts 143°
2026-04-14 11:16 43.95029 17.21229 32989 ft 424 kts 143°
2026-04-14 11:17 43.90503 17.26477 32989 ft 424 kts 143°
2026-04-14 11:17 43.85971 17.31721 32996 ft 425 kts 143°
2026-04-14 11:18 43.81456 17.36929 32996 ft 425 kts 143°
2026-04-14 11:18 43.76914 17.42175 33005 ft 425 kts 143°
2026-04-14 11:19 43.72366 17.47412 33007 ft 426 kts 143°
2026-04-14 11:19 43.67810 17.52642 33011 ft 426 kts 143°
2026-04-14 11:20 43.63269 17.57843 33016 ft 427 kts 143°
2026-04-14 11:20 43.58692 17.63078 33013 ft 427 kts 143°
2026-04-14 11:21 43.54107 17.68312 33011 ft 428 kts 143°
2026-04-14 11:21 43.49514 17.73545 33008 ft 428 kts 143°
2026-04-14 11:22 43.44919 17.78777 33001 ft 429 kts 143°
2026-04-14 11:22 43.40345 17.83966 32991 ft 429 kts 143°
2026-04-14 11:23 43.35729 17.89182 32983 ft 430 kts 143°
2026-04-14 11:23 43.31107 17.94406 32988 ft 431 kts 143°
2026-04-14 11:24 43.26475 17.99637 32989 ft 431 kts 143°
2026-04-14 11:24 43.21867 18.04821 32999 ft 432 kts 143°
2026-04-14 11:25 43.17221 18.10034 33003 ft 432 kts 143°
2026-04-14 11:25 43.12570 18.15247 33010 ft 432 kts 143°
2026-04-14 11:26 43.07914 18.20457 33019 ft 433 kts 144°
2026-04-14 11:26 43.03279 18.25632 33023 ft 433 kts 144°
2026-04-14 11:27 42.98602 18.30834 33025 ft 434 kts 144°
2026-04-14 11:27 42.93917 18.36049 33030 ft 434 kts 144°
2026-04-14 11:28 42.89262 18.41222 33028 ft 435 kts 144°
2026-04-14 11:28 42.84557 18.46430 33037 ft 437 kts 143°
2026-04-14 11:29 42.79829 18.51649 33017 ft 439 kts 144°
2026-04-14 11:29 42.75068 18.56895 33012 ft 441 kts 144°
2026-04-14 11:30 42.70323 18.62114 33014 ft 442 kts 144°
2026-04-14 11:30 42.65534 18.67372 33021 ft 443 kts 144°
2026-04-14 11:31 42.60739 18.72627 33011 ft 443 kts 144°
2026-04-14 11:31 42.55946 18.77880 33010 ft 443 kts 144°
2026-04-14 11:32 42.51172 18.83098 33009 ft 444 kts 144°
2026-04-14 11:32 42.46358 18.88338 33005 ft 444 kts 145°
2026-04-14 11:33 42.41537 18.93577 33010 ft 444 kts 145°
2026-04-14 11:34 42.34300 19.01425 33011 ft 445 kts 145°
2026-04-14 11:34 42.29497 19.06620 33006 ft 445 kts 146°
2026-04-14 11:35 42.24665 19.11834 33009 ft 445 kts 146°
2026-04-14 11:35 42.19828 19.17044 33008 ft 445 kts 146°
2026-04-14 11:36 42.14987 19.22248 33013 ft 445 kts 146°
2026-04-14 11:36 42.10143 19.27442 33011 ft 445 kts 147°
2026-04-14 11:37 42.05326 19.32608 33009 ft 446 kts 146°
2026-04-14 11:37 42.00476 19.37797 33006 ft 446 kts 147°
2026-04-14 11:38 41.95616 19.42981 33008 ft 446 kts 147°
2026-04-14 11:38 41.90782 19.48125 33008 ft 446 kts 147°
2026-04-14 11:39 41.85914 19.53299 32996 ft 446 kts 147°
2026-04-14 11:39 41.81041 19.58463 32995 ft 446 kts 147°
2026-04-14 11:40 41.76165 19.63611 32994 ft 447 kts 147°
2026-04-14 11:40 41.71318 19.68726 32990 ft 447 kts 147°
2026-04-14 11:41 41.66434 19.73873 32989 ft 447 kts 147°
2026-04-14 11:41 41.61544 19.79018 32993 ft 447 kts 148°
2026-04-14 11:42 41.56655 19.84156 32994 ft 447 kts 148°
2026-04-14 11:42 41.51793 19.89251 32996 ft 447 kts 148°
2026-04-14 11:43 41.46893 19.94374 32996 ft 447 kts 148°
2026-04-14 11:43 41.42001 19.99486 32996 ft 447 kts 148°
2026-04-14 11:44 41.37111 20.04581 32994 ft 446 kts 149°
2026-04-14 11:44 41.32253 20.09625 33001 ft 446 kts 149°
2026-04-14 11:45 41.27359 20.14699 33000 ft 446 kts 149°
2026-04-14 11:45 41.22464 20.19758 33005 ft 445 kts 149°
2026-04-14 11:46 41.17609 20.24779 33017 ft 445 kts 149°
2026-04-14 11:46 41.12723 20.29819 33034 ft 445 kts 150°
2026-04-14 11:47 41.07833 20.34846 33056 ft 445 kts 150°
2026-04-14 11:47 41.02949 20.39873 33043 ft 444 kts 150°
2026-04-14 11:48 40.98095 20.44858 33064 ft 444 kts 150°
2026-04-14 11:48 40.93210 20.49851 33071 ft 444 kts 151°
2026-04-14 11:49 40.88323 20.54837 33068 ft 443 kts 151°
2026-04-14 11:49 40.83445 20.59809 33066 ft 443 kts 151°
2026-04-14 11:50 40.78604 20.64738 33065 ft 442 kts 152°
2026-04-14 11:50 40.73728 20.69687 33063 ft 442 kts 152°
2026-04-14 11:51 40.66426 20.77100 33065 ft 442 kts 152°
2026-04-14 11:51 40.61579 20.81989 33070 ft 442 kts 153°
2026-04-14 11:52 40.56769 20.86835 33078 ft 441 kts 153°
2026-04-14 11:52 40.51898 20.91750 33081 ft 442 kts 153°
2026-04-14 11:53 40.47051 20.96638 33092 ft 443 kts 152°
2026-04-14 11:53 40.42277 21.01775 33106 ft 445 kts 150°
2026-04-14 11:54 40.37564 21.07054 33107 ft 446 kts 150°
2026-04-14 11:54 40.32832 21.12308 33119 ft 446 kts 151°
2026-04-14 11:55 40.28070 21.17497 33121 ft 445 kts 151°
2026-04-14 11:55 40.23327 21.22630 33124 ft 445 kts 151°
2026-04-14 11:56 40.18554 21.27789 33125 ft 445 kts 151°
2026-04-14 11:56 40.13780 21.32962 33127 ft 445 kts 151°
2026-04-14 11:57 40.09011 21.38134 33132 ft 446 kts 152°
2026-04-14 11:57 40.04266 21.43261 33135 ft 446 kts 152°
2026-04-14 11:58 39.99483 21.48414 33147 ft 446 kts 152°
2026-04-14 11:58 39.94699 21.53564 33148 ft 446 kts 152°
2026-04-14 11:59 39.89920 21.58698 33148 ft 445 kts 152°
2026-04-14 11:59 39.85167 21.63783 33160 ft 445 kts 152°
2026-04-14 12:00 39.80387 21.68891 33165 ft 445 kts 151°
2026-04-14 12:00 39.75610 21.73997 33166 ft 444 kts 151°
2026-04-14 12:01 39.70834 21.79078 33178 ft 444 kts 152°
2026-04-14 12:01 39.66094 21.84121 33162 ft 443 kts 152°
2026-04-14 12:02 39.61325 21.89185 33162 ft 443 kts 151°
2026-04-14 12:02 39.56559 21.94237 33171 ft 442 kts 151°
2026-04-14 12:03 39.51779 21.99287 33465 ft 444 kts 152°
2026-04-14 12:03 39.49422 22.01771 33759 ft 443 kts 152°
2026-04-14 12:03 39.47037 22.04290 34069 ft 442 kts 151°
2026-04-14 12:04 39.42280 22.09317 34320 ft 442 kts 151°
2026-04-14 12:04 39.39897 22.11829 34538 ft 442 kts 151°
2026-04-14 12:04 39.37513 22.14336 34734 ft 442 kts 151°
2026-04-14 12:05 39.35128 22.16840 34938 ft 442 kts 151°
2026-04-14 12:05 39.32773 22.19310 35110 ft 443 kts 151°
2026-04-14 12:05 39.27986 22.24323 35157 ft 443 kts 151°
2026-04-14 12:06 39.23205 22.29334 35156 ft 443 kts 151°
2026-04-14 12:06 39.18421 22.34326 35157 ft 442 kts 151°
2026-04-14 12:07 39.13671 22.39271 35158 ft 442 kts 150°
2026-04-14 12:07 39.08885 22.44251 35166 ft 443 kts 151°
2026-04-14 12:08 39.04094 22.49231 35168 ft 443 kts 150°
2026-04-14 12:08 38.99304 22.54200 35165 ft 442 kts 151°
2026-04-14 12:09 38.94541 22.59120 35162 ft 442 kts 151°
2026-04-14 12:09 38.89746 22.64071 35158 ft 442 kts 151°
2026-04-14 12:10 38.84956 22.69025 35148 ft 442 kts 151°
2026-04-14 12:10 38.80158 22.73962 35145 ft 442 kts 151°
2026-04-14 12:11 38.75386 22.78863 35142 ft 443 kts 151°
2026-04-14 12:11 38.70577 22.83797 35143 ft 443 kts 151°
2026-04-14 12:12 38.65756 22.88731 35141 ft 444 kts 151°
2026-04-14 12:12 38.60921 22.93671 35140 ft 445 kts 151°
2026-04-14 12:13 38.56111 22.98579 35138 ft 446 kts 151°
2026-04-14 12:13 38.51261 23.03527 35142 ft 447 kts 151°
2026-04-14 12:14 38.46397 23.08473 35138 ft 447 kts 151°
2026-04-14 12:14 38.41560 23.13380 35139 ft 448 kts 151°
2026-04-14 12:15 38.36679 23.18322 35147 ft 448 kts 151°
2026-04-14 12:15 38.31799 23.23259 35149 ft 448 kts 151°
2026-04-14 12:16 38.26914 23.28190 35155 ft 448 kts 151°
2026-04-14 12:16 38.22055 23.33091 35164 ft 448 kts 151°
2026-04-14 12:17 38.17167 23.38020 35170 ft 449 kts 151°
2026-04-14 12:17 38.12273 23.42929 35176 ft 449 kts 151°
2026-04-14 12:18 38.07362 23.47845 35181 ft 449 kts 151°
2026-04-14 12:18 38.02447 23.52754 35182 ft 450 kts 151°
2026-04-14 12:19 38.01790 23.53408 35187 ft 450 kts 151°
2026-04-14 12:19 37.96865 23.58325 35179 ft 451 kts 151°
2026-04-14 12:20 37.91932 23.63262 35179 ft 452 kts 151°
2026-04-14 12:20 37.86983 23.68186 35170 ft 452 kts 151°
2026-04-14 12:21 37.82029 23.73103 35173 ft 453 kts 151°
2026-04-14 12:21 37.77109 23.77986 35169 ft 453 kts 151°
2026-04-14 12:22 37.72145 23.82909 35171 ft 454 kts 151°
2026-04-14 12:22 37.67175 23.87823 35171 ft 454 kts 151°
2026-04-14 12:23 37.62203 23.92729 35172 ft 454 kts 151°
2026-04-14 12:23 37.57257 23.97595 35167 ft 454 kts 151°
2026-04-14 12:24 37.52270 24.02492 35163 ft 455 kts 151°
2026-04-14 12:24 37.47280 24.07395 35163 ft 455 kts 151°
2026-04-14 12:25 37.42284 24.12293 35161 ft 456 kts 151°
2026-04-14 12:25 37.37304 24.17155 35154 ft 456 kts 151°
2026-04-14 12:26 37.32288 24.22045 35155 ft 457 kts 151°
2026-04-14 12:26 37.27263 24.26943 35155 ft 458 kts 151°
2026-04-14 12:27 37.23082 24.31025 35154 ft 458 kts 151°
2026-04-14 12:27 37.18040 24.35931 35153 ft 459 kts 151°
2026-04-14 12:28 37.12166 24.41619 35150 ft 459 kts 151°
2026-04-14 12:28 37.07929 24.45715 35147 ft 460 kts 151°
2026-04-14 12:29 37.02899 24.50576 35144 ft 460 kts 151°
2026-04-14 12:29 36.97832 24.55471 35144 ft 460 kts 151°
2026-04-14 12:30 36.91935 24.61158 35139 ft 461 kts 152°
2026-04-14 12:30 36.87669 24.65257 35134 ft 462 kts 152°
2026-04-14 12:31 36.82607 24.70107 35133 ft 462 kts 152°
2026-04-14 12:31 36.77499 24.75000 35135 ft 463 kts 152°
2026-04-14 12:32 36.72386 24.79900 35141 ft 464 kts 152°
2026-04-14 12:32 36.67266 24.84793 35146 ft 464 kts 152°
2026-04-14 12:33 36.62172 24.89647 35144 ft 464 kts 152°
2026-04-14 12:33 36.57039 24.94525 35144 ft 464 kts 152°
2026-04-14 12:34 36.51909 24.99399 35138 ft 464 kts 152°
2026-04-14 12:34 36.46774 25.04275 35134 ft 465 kts 152°
2026-04-14 12:35 36.41632 25.09145 35139 ft 465 kts 152°
2026-04-14 12:35 36.36514 25.13978 35142 ft 465 kts 152°
2026-04-14 12:36 36.31358 25.18836 35139 ft 466 kts 152°
2026-04-14 12:36 36.26195 25.23709 35140 ft 466 kts 151°
2026-04-14 12:37 36.21034 25.28575 35133 ft 467 kts 152°
2026-04-14 12:37 36.15888 25.33395 35131 ft 467 kts 152°
2026-04-14 12:38 36.08103 25.40674 35127 ft 468 kts 152°
2026-04-14 12:39 36.02907 25.45532 35116 ft 469 kts 151°
2026-04-14 12:39 35.97703 25.50396 35121 ft 469 kts 151°
2026-04-14 12:40 35.92525 25.55225 35122 ft 470 kts 151°
2026-04-14 12:40 35.87305 25.60085 35111 ft 470 kts 151°
2026-04-14 12:41 35.82075 25.64935 35108 ft 471 kts 151°
2026-04-14 12:41 35.76836 25.69790 35104 ft 471 kts 151°
2026-04-14 12:42 35.71629 25.74613 35105 ft 472 kts 151°
2026-04-14 12:42 35.66379 25.79458 35105 ft 472 kts 151°
2026-04-14 12:43 35.61122 25.84307 35107 ft 472 kts 151°
2026-04-14 12:43 35.55861 25.89149 35109 ft 473 kts 152°
2026-04-14 12:44 35.50633 25.93954 35109 ft 473 kts 151°
2026-04-14 12:44 35.45362 25.98794 35110 ft 473 kts 152°
2026-04-14 12:45 35.37444 26.06051 35117 ft 474 kts 152°
2026-04-14 12:45 35.32195 26.10838 35123 ft 474 kts 152°
2026-04-14 12:46 35.26911 26.15654 35131 ft 474 kts 152°
2026-04-14 12:46 35.21623 26.20468 35141 ft 474 kts 152°
2026-04-14 12:47 35.16339 26.25272 35146 ft 474 kts 152°
2026-04-14 12:47 35.11052 26.30070 35142 ft 473 kts 152°
2026-04-14 12:48 35.05801 26.34834 35155 ft 474 kts 151°
2026-04-14 12:48 35.00512 26.39627 35163 ft 474 kts 151°
2026-04-14 12:49 34.95218 26.44409 35163 ft 473 kts 151°
2026-04-14 12:49 34.89960 26.49151 35160 ft 474 kts 151°
2026-04-14 12:50 34.82008 26.56311 35160 ft 474 kts 150°
2026-04-14 12:51 34.76708 26.61068 35166 ft 474 kts 150°
2026-04-14 12:51 34.71399 26.65827 35157 ft 474 kts 150°
2026-04-14 12:52 34.66127 26.70550 35172 ft 474 kts 150°
2026-04-14 12:52 34.60810 26.75289 35172 ft 474 kts 150°
2026-04-14 12:53 34.55496 26.80026 35162 ft 474 kts 150°
2026-04-14 12:53 34.50181 26.84765 35160 ft 474 kts 150°
2026-04-14 12:54 34.44863 26.89504 35155 ft 475 kts 150°
2026-04-14 12:54 34.39567 26.94203 35162 ft 475 kts 150°
2026-04-14 12:55 34.34232 26.98929 35155 ft 476 kts 150°
2026-04-14 12:55 34.28891 27.03661 35158 ft 476 kts 150°
2026-04-14 12:56 34.23544 27.08389 35156 ft 476 kts 150°
2026-04-14 12:56 34.18225 27.13079 35152 ft 476 kts 150°
2026-04-14 12:57 34.12867 27.17796 35150 ft 477 kts 150°
2026-04-14 12:57 34.07506 27.22507 35144 ft 477 kts 150°
2026-04-14 12:58 34.01955 27.26718 35151 ft 465 kts 162°
2026-04-14 12:58 33.96093 27.29891 35150 ft 465 kts 163°
2026-04-14 12:59 33.90181 27.33066 35156 ft 465 kts 163°
2026-04-14 12:59 33.84270 27.36241 35153 ft 465 kts 163°
2026-04-14 13:00 33.78360 27.39419 35155 ft 465 kts 163°
2026-04-14 13:00 33.72485 27.42581 35151 ft 466 kts 163°
2026-04-14 13:01 33.66570 27.45749 35148 ft 466 kts 164°
2026-04-14 13:01 33.60654 27.48914 35148 ft 466 kts 164°
2026-04-14 13:02 33.54731 27.52081 35138 ft 466 kts 164°
2026-04-14 13:02 33.48844 27.55220 35141 ft 467 kts 165°
2026-04-14 13:03 33.42904 27.58384 35142 ft 467 kts 164°
2026-04-14 13:03 33.36969 27.61553 35137 ft 468 kts 165°
2026-04-14 13:04 33.31058 27.64692 35142 ft 468 kts 165°
2026-04-14 13:04 33.25102 27.67840 35136 ft 468 kts 165°
2026-04-14 13:05 33.19147 27.70996 35141 ft 468 kts 165°
2026-04-14 13:05 33.13183 27.74149 35140 ft 469 kts 165°
2026-04-14 13:06 33.07266 27.77282 35143 ft 469 kts 165°
2026-04-14 13:06 33.01305 27.80424 35147 ft 468 kts 165°
2026-04-14 13:07 32.95341 27.83565 35147 ft 468 kts 165°
2026-04-14 13:07 32.89386 27.86702 35144 ft 468 kts 165°
2026-04-14 13:08 32.83423 27.89829 35139 ft 468 kts 165°
2026-04-14 13:08 32.77500 27.92924 35141 ft 468 kts 165°
2026-04-14 13:09 32.71541 27.96037 35139 ft 468 kts 164°
2026-04-14 13:09 32.65583 27.99157 35137 ft 468 kts 164°
2026-04-14 13:10 32.59623 28.02270 35130 ft 468 kts 164°
2026-04-14 13:10 32.53704 28.05351 35129 ft 468 kts 165°
2026-04-14 13:11 32.47737 28.08459 35126 ft 469 kts 165°
2026-04-14 13:11 32.41766 28.11561 35127 ft 469 kts 165°
2026-04-14 13:12 32.35786 28.14655 35122 ft 469 kts 165°
2026-04-14 13:12 32.29843 28.17741 35118 ft 470 kts 165°
2026-04-14 13:13 32.23854 28.20856 35114 ft 470 kts 165°
2026-04-14 13:13 32.17853 28.23956 35115 ft 471 kts 165°
2026-04-14 13:14 32.11849 28.27050 35113 ft 471 kts 165°
2026-04-14 13:14 32.05881 28.30122 35114 ft 471 kts 165°
2026-04-14 13:15 31.99863 28.33206 35117 ft 472 kts 165°
2026-04-14 13:15 31.93842 28.36289 35121 ft 472 kts 165°
2026-04-14 13:16 31.87823 28.39379 35124 ft 472 kts 164°
2026-04-14 13:16 31.81852 28.42448 35126 ft 471 kts 164°
2026-04-14 13:17 31.75844 28.45525 35126 ft 471 kts 164°
2026-04-14 13:17 31.69840 28.48593 35122 ft 470 kts 164°
2026-04-14 13:18 31.63845 28.51647 35120 ft 470 kts 164°
2026-04-14 13:18 31.57888 28.54681 35111 ft 469 kts 164°
2026-04-14 13:19 31.51900 28.57733 35111 ft 469 kts 164°
2026-04-14 13:19 31.45912 28.60779 35108 ft 469 kts 164°
2026-04-14 13:20 31.39923 28.63803 35105 ft 469 kts 164°
2026-04-14 13:20 31.33977 28.66807 35101 ft 469 kts 164°
2026-04-14 13:21 31.27991 28.69836 35105 ft 469 kts 164°
2026-04-14 13:21 31.22001 28.72859 35101 ft 469 kts 164°
2026-04-14 13:22 31.16014 28.75876 35096 ft 469 kts 164°
2026-04-14 13:22 31.10062 28.78873 35098 ft 469 kts 164°
2026-04-14 13:23 31.04070 28.81892 35094 ft 469 kts 163°
2026-04-14 13:23 30.98078 28.84912 35093 ft 469 kts 163°
2026-04-14 13:24 30.92087 28.87926 35087 ft 469 kts 163°
2026-04-14 13:24 30.83128 28.92405 35079 ft 469 kts 163°
2026-04-14 13:25 30.77124 28.95394 35078 ft 469 kts 163°
2026-04-14 13:26 30.65147 29.01368 35070 ft 470 kts 163°
2026-04-14 13:26 30.59131 29.04366 35058 ft 471 kts 163°
2026-04-14 13:27 30.53114 29.07378 35057 ft 473 kts 160°
2026-04-14 13:27 30.47613 29.11746 35050 ft 489 kts 141°
2026-04-14 13:28 30.42876 29.17448 35049 ft 492 kts 138°
2026-04-14 13:28 30.38184 29.23142 35047 ft 492 kts 138°
2026-04-14 13:29 30.33454 29.28885 35046 ft 493 kts 138°
2026-04-14 13:29 30.28714 29.34624 35045 ft 494 kts 138°
2026-04-14 13:30 30.23960 29.40359 35043 ft 494 kts 138°
2026-04-14 13:30 30.19233 29.46050 35041 ft 494 kts 139°
2026-04-14 13:31 30.14463 29.51790 35040 ft 495 kts 139°
2026-04-14 13:31 30.09691 29.57527 35040 ft 495 kts 138°
2026-04-14 13:32 30.04915 29.63270 35041 ft 496 kts 138°
2026-04-14 13:32 30.00163 29.68977 35039 ft 497 kts 138°
2026-04-14 13:33 29.95367 29.74715 35040 ft 497 kts 139°
2026-04-14 13:33 29.90566 29.80453 35047 ft 497 kts 139°
2026-04-14 13:34 29.83388 29.89013 35049 ft 498 kts 139°
2026-04-14 13:35 29.78573 29.94752 35048 ft 498 kts 138°
2026-04-14 13:35 29.73751 30.00489 35046 ft 499 kts 139°
2026-04-14 13:36 29.68919 30.06216 35041 ft 499 kts 139°
2026-04-14 13:36 29.64120 30.11907 35041 ft 499 kts 138°
2026-04-14 13:37 29.59282 30.17636 35035 ft 499 kts 139°
2026-04-14 13:37 29.54437 30.23361 35035 ft 500 kts 139°
2026-04-14 13:38 29.49592 30.29085 35027 ft 500 kts 139°
2026-04-14 13:38 29.44773 30.34776 35025 ft 501 kts 138°
2026-04-14 13:39 29.39908 30.40502 35023 ft 501 kts 139°
2026-04-14 13:39 29.35035 30.46220 35019 ft 501 kts 138°
2026-04-14 13:40 29.30158 30.51937 35018 ft 502 kts 138°
2026-04-14 13:40 29.25308 30.57615 35018 ft 502 kts 138°
2026-04-14 13:41 29.20420 30.63337 35018 ft 503 kts 138°
2026-04-14 13:41 29.15527 30.69064 35020 ft 503 kts 138°
2026-04-14 13:42 29.10631 30.74789 35022 ft 503 kts 138°
2026-04-14 13:42 29.05754 30.80461 35027 ft 504 kts 138°
2026-04-14 13:43 29.00831 30.86168 35032 ft 505 kts 138°
2026-04-14 13:43 28.95909 30.91893 35038 ft 505 kts 138°
2026-04-14 13:44 28.90988 30.97612 35039 ft 505 kts 138°
2026-04-14 13:44 28.86071 31.03303 35032 ft 505 kts 138°
2026-04-14 13:45 28.81160 31.08969 35034 ft 506 kts 138°
2026-04-14 13:45 28.76221 31.14679 35030 ft 506 kts 138°
2026-04-14 13:46 28.71274 31.20396 35032 ft 506 kts 138°
2026-04-14 13:46 28.66397 31.26196 35028 ft 508 kts 135°
2026-04-14 13:47 28.61719 31.32167 35031 ft 509 kts 134°
2026-04-14 13:47 28.57038 31.38212 35034 ft 509 kts 135°
2026-04-14 13:48 28.52302 31.44194 35039 ft 509 kts 135°
2026-04-14 13:48 28.47521 31.50144 35037 ft 510 kts 135°
2026-04-14 13:49 28.42782 31.56061 35031 ft 510 kts 135°
2026-04-14 13:49 28.38022 31.62039 35031 ft 510 kts 135°
2026-04-14 13:50 28.33248 31.68007 35021 ft 511 kts 135°
2026-04-14 13:50 28.28460 31.73968 35014 ft 511 kts 135°
2026-04-14 13:51 28.23666 31.79938 35008 ft 512 kts 135°
2026-04-14 13:51 28.18903 31.85868 35006 ft 513 kts 135°
2026-04-14 13:52 28.14096 31.91844 35004 ft 513 kts 135°
2026-04-14 13:52 28.09278 31.97816 35002 ft 514 kts 135°
2026-04-14 13:53 28.04509 32.03780 35007 ft 516 kts 130°
2026-04-14 13:53 28.00690 32.10650 34992 ft 517 kts 118°
2026-04-14 13:54 27.97268 32.17817 34988 ft 518 kts 118°
2026-04-14 13:54 27.95541 32.21409 34800 ft 519 kts 118°
2026-04-14 13:54 27.93813 32.24985 34561 ft 519 kts 118°
2026-04-14 13:54 27.92079 32.28564 34323 ft 519 kts 118°
2026-04-14 13:55 27.90418 32.31990 34089 ft 518 kts 118°
2026-04-14 13:55 27.88685 32.35561 33842 ft 519 kts 118°
2026-04-14 13:55 27.86947 32.39138 33572 ft 518 kts 118°
2026-04-14 13:55 27.85218 32.42701 33302 ft 518 kts 118°
2026-04-14 13:56 27.83488 32.46270 33037 ft 517 kts 117°
2026-04-14 13:56 27.81761 32.49835 32755 ft 521 kts 117°
2026-04-14 13:56 27.80018 32.53433 32088 ft 523 kts 117°
2026-04-14 13:56 27.78272 32.57029 31551 ft 518 kts 117°
2026-04-14 13:57 27.76574 32.60516 31211 ft 510 kts 117°
2026-04-14 13:57 27.74874 32.63999 30803 ft 504 kts 117°
2026-04-14 13:57 27.73191 32.67445 30381 ft 498 kts 117°
2026-04-14 13:57 27.71529 32.70850 29928 ft 493 kts 117°
2026-04-14 13:58 27.69882 32.74224 29433 ft 488 kts 117°
2026-04-14 13:58 27.68253 32.77559 28952 ft 483 kts 117°
2026-04-14 13:58 27.66642 32.80851 28456 ft 477 kts 117°
2026-04-14 13:58 27.65066 32.84073 27968 ft 472 kts 117°
2026-04-14 13:59 27.63488 32.87295 27510 ft 467 kts 117°
2026-04-14 13:59 27.61926 32.90483 27045 ft 462 kts 117°
2026-04-14 13:59 27.60378 32.93640 26586 ft 457 kts 117°
2026-04-14 13:59 27.58847 32.96758 26118 ft 452 kts 117°
2026-04-14 14:00 27.57331 32.99839 25658 ft 447 kts 118°
2026-04-14 14:00 27.55829 33.02889 25206 ft 443 kts 118°
2026-04-14 14:00 27.54337 33.05919 24463 ft 446 kts 118°
2026-04-14 14:00 27.52857 33.08935 24006 ft 441 kts 118°
2026-04-14 14:01 27.51393 33.11913 23768 ft 429 kts 118°
2026-04-14 14:01 27.49957 33.14831 23318 ft 423 kts 119°
2026-04-14 14:01 27.48539 33.17707 22777 ft 418 kts 118°
2026-04-14 14:01 27.47135 33.20553 22252 ft 413 kts 118°
2026-04-14 14:02 27.45742 33.23375 22000 ft 413 kts 118°
2026-04-14 14:02 27.44350 33.26194 21604 ft 410 kts 118°
2026-04-14 14:02 27.42986 33.28955 20988 ft 409 kts 118°
2026-04-14 14:02 27.41603 33.31752 20331 ft 409 kts 118°
2026-04-14 14:03 27.40221 33.34544 19690 ft 409 kts 118°
2026-04-14 14:03 27.38835 33.37337 19064 ft 409 kts 118°
2026-04-14 14:03 27.37448 33.40129 18443 ft 408 kts 118°
2026-04-14 14:03 27.36064 33.42914 17772 ft 408 kts 118°
2026-04-14 14:04 27.34684 33.45691 17090 ft 406 kts 118°
2026-04-14 14:04 27.33373 33.48332 16443 ft 405 kts 118°
2026-04-14 14:04 27.32160 33.50772 15885 ft 403 kts 118°
2026-04-14 14:04 27.30819 33.53473 15265 ft 400 kts 118°
2026-04-14 14:05 27.29460 33.56188 14653 ft 397 kts 120°
2026-04-14 14:05 27.27733 33.58572 14045 ft 393 kts 139°
2026-04-14 14:05 27.25493 33.60181 13328 ft 373 kts 153°
2026-04-14 14:05 27.23208 33.61401 12605 ft 355 kts 154°
2026-04-14 14:06 27.21014 33.62543 11880 ft 340 kts 155°
2026-04-14 14:06 27.18910 33.63630 11187 ft 326 kts 155°
2026-04-14 14:06 27.16887 33.64670 10492 ft 314 kts 154°
2026-04-14 14:06 27.14951 33.65660 9776 ft 305 kts 155°
2026-04-14 14:07 27.13040 33.66642 8913 ft 300 kts 155°
2026-04-14 14:07 27.11164 33.67615 8075 ft 295 kts 155°
2026-04-14 14:07 27.09315 33.68588 7281 ft 291 kts 155°
2026-04-14 14:07 27.07542 33.69533 6861 ft 274 kts 155°
2026-04-14 14:08 27.05863 33.70438 6438 ft 264 kts 155°
2026-04-14 14:08 27.04224 33.71324 6001 ft 258 kts 154°
2026-04-14 14:08 27.02652 33.72178 5560 ft 245 kts 149°
2026-04-14 14:08 27.01462 33.73409 5120 ft 232 kts 121°
2026-04-14 14:09 27.00797 33.75021 4579 ft 225 kts 111°
2026-04-14 14:09 27.00378 33.76687 4037 ft 220 kts 93°
2026-04-14 14:09 27.00436 33.78366 3498 ft 211 kts 85°
2026-04-14 14:09 27.00804 33.79911 3109 ft 200 kts 63°
2026-04-14 14:10 27.01702 33.81044 2896 ft 194 kts 37°
2026-04-14 14:10 27.02909 33.81598 2698 ft 180 kts 17°
2026-04-14 14:10 27.04088 33.81953 2479 ft 171 kts 17°
2026-04-14 14:10 27.05210 33.82292 2277 ft 160 kts 17°
2026-04-14 14:11 27.06263 33.82466 2084 ft 154 kts 359°
2026-04-14 14:11 27.07299 33.82214 1873 ft 151 kts 347°
2026-04-14 14:11 27.08307 33.81915 1677 ft 150 kts 348°
2026-04-14 14:11 27.09308 33.81621 1473 ft 148 kts 346°
2026-04-14 14:12 27.10296 33.81331 1279 ft 147 kts 347°
2026-04-14 14:12 27.11280 33.81043 1085 ft 145 kts 345°
2026-04-14 14:12 27.12251 33.80760 888 ft 144 kts 346°
2026-04-14 14:12 27.13220 33.80475 701 ft 143 kts 344°
2026-04-14 14:13 27.14166 33.80195 490 ft 141 kts 344°
2026-04-14 14:13 27.15109 33.79916 324 ft 141 kts 345°
2026-04-14 14:13 27.16052 33.79642 147 ft 138 kts 347°
2026-04-14 14:13 27.16901 33.79391 111 ft 100 kts 345°
2026-04-14 14:14 27.17403 33.79244 102 ft 64 kts 345°
2026-04-14 14:14 27.17690 33.79161 97 ft 20 kts 349°
2026-04-14 14:14 27.17840 33.79163 100 ft 23 kts
2026-04-14 14:14 27.17953 33.79211 99 ft 13 kts 53°
2026-04-14 14:15 27.17908 33.79291 98 ft 16 kts 164°
2026-04-14 14:15 27.17792 33.79323 97 ft 18 kts 169°
2026-04-14 14:15 27.17672 33.79346 99 ft 17 kts 166°
2026-04-14 14:15 27.17559 33.79385 101 ft 19 kts 164°
2026-04-14 14:16 27.17428 33.79428 101 ft 20 kts 164°
2026-04-14 14:16 27.17293 33.79470 103 ft 16 kts 164°
2026-04-14 14:16 27.17243 33.79558 100 ft 17 kts 79°
2026-04-14 14:17 27.17326 33.79917 60 ft 26 kts 75°
2026-04-14 14:17 27.17372 33.80100 55 ft 22 kts 74°
2026-04-14 14:17 27.17410 33.80264 52 ft 21 kts 75°
2026-04-14 14:17 27.17450 33.80431 54 ft 20 kts 76°
2026-04-14 14:18 27.17482 33.80562 56 ft 16 kts 73°
2026-04-14 14:18 27.17561 33.80611 54 ft 16 kts 349°
2026-04-14 14:18 27.17649 33.80587 56 ft 8 kts 346°
2026-04-14 14:18 27.17680 33.80548 57 ft 5 kts 261°
2026-04-14 14:19 27.17670 33.80506 55 ft 2 kts 255°
2026-04-14 14:19 27.17669 33.80501 56 ft 0 kts 255°